Change the Weather History Date:

Friday, September 20, 2013

  Actual Average (KLBF) Record (KLBF)
Temperature  
Mean Temperature 56 °F 60 °F  
Max Temperature 74 °F 76 °F 95 °F (1937)
Min Temperature 39 °F 45 °F 25 °F (1918)
Degree Days  
Heating Degree Days 8 6  
Month to date heating degree days 71  
Since 1 July heating degree days 91  
Cooling Degree Days 0 1  
Month to date cooling degree days 62  
Year to date cooling degree days 757  
Growing Degree Days 6 (Base 50)    
Moisture  
Dew Point 40 °F    
Average Humidity 61    
Maximum Humidity 91    
Minimum Humidity 27    
Precipitation  
Precipitation 0.01 in 0.05 in 1.37 in (1965)
Month to date precipitation 0.94  
Year to date precipitation 17.16  
Snow  
Snow 0.00 in 0.10 in 0.70 in (1995)
Month to date snowfall 0.1  
Since 1 July snowfall 0.1  
Since 1 September snowfall 0.1  
Snow Depth -    
Sea Level Pressure  
Sea Level Pressure 30.11 in    
Wind  
Wind Speed 4 mph (WNW)    
Max Wind Speed 13 mph    
Max Gust Speed 18 mph    
Visibility 10 miles    
Events      
T = Trace of Precipitation, MM = Missing Value Source: NWS Daily Summary

Daily Weather History Graph

Daily Weather History Graph

Search for Another Location

Airport or City:

Trip Planner

Search our weather history database for the weather conditions in past years. The results will help you decide how hot, cold, wet, or windy it might be!

Date:

Astronomy

Sep. 20, 2013 Rise Set
Actual Time 7:27 AM CDT 7:42 PM CDT
Civil Twilight 6:59 AM CDT 8:10 PM CDT
Nautical Twilight 6:27 AM CDT 8:43 PM CDT
Astronomical Twilight 5:53 AM CDT 9:16 PM CDT
Moon 8:15 PM CDT (9/20) 8:46 AM CDT (9/20)
Length of Visible Light 13h 10m
Length of Day
12h 14m
Full, 98% of the Moon is Illuminated
Sep 20
Full
Sep 26
Last Quarter
Oct 4
New
Oct 11
First Quarter
Oct 18
Full

Hourly Weather History & Observations

Time (CDT) Temp. Windchill Dew Point Humidity Pressure Visibility Wind Dir Wind Speed Gust Speed Precip Events Conditions
12:15 AM 48.2 °F - 41.0 °F 76% 30.17 in 10.0 mi WNW 3.5 mph - N/A   Clear
12:35 AM 47.7 °F - 40.6 °F 77% 30.17 in 10.0 mi Calm Calm - N/A   Clear
12:55 AM 46.8 °F - 40.5 °F 79% 30.17 in 10.0 mi Calm Calm - N/A   Clear
1:15 AM 45.5 °F 44.2 °F 39.9 °F 81% 30.18 in 10.0 mi West 3.5 mph - N/A   Clear
1:35 AM 45.0 °F 43.5 °F 39.9 °F 82% 30.18 in 10.0 mi WNW 3.5 mph - N/A   Clear
1:55 AM 45.5 °F 44.2 °F 40.1 °F 81% 30.18 in 10.0 mi West 3.5 mph - N/A   Clear
2:15 AM 43.9 °F 42.3 °F 39.6 °F 85% 30.18 in 10.0 mi West 3.5 mph - N/A   Clear
2:35 AM 42.4 °F 40.7 °F 38.8 °F 87% 30.17 in 10.0 mi WNW 3.5 mph - N/A   Clear
2:55 AM 42.1 °F 39.2 °F 38.8 °F 88% 30.18 in 10.0 mi West 4.6 mph - N/A   Clear
3:15 AM 43.2 °F 40.5 °F 39.4 °F 86% 30.17 in 10.0 mi West 4.6 mph - N/A   Clear
3:35 AM 42.8 °F 41.1 °F 39.0 °F 86% 30.17 in 10.0 mi West 3.5 mph - N/A   Clear
3:55 AM 41.0 °F 39.0 °F 37.9 °F 89% 30.17 in 10.0 mi WNW 3.5 mph - N/A   Clear
4:15 AM 40.1 °F 38.0 °F 37.4 °F 90% 30.17 in 10.0 mi WNW 3.5 mph - N/A   Clear
4:35 AM 40.1 °F 36.9 °F 37.6 °F 91% 30.16 in 10.0 mi WNW 4.6 mph - N/A   Clear
4:55 AM 39.6 °F 37.4 °F 37.0 °F 91% 30.16 in 10.0 mi WNW 3.5 mph - N/A   Clear
5:15 AM 39.2 °F 37.0 °F 36.5 °F 90% 30.16 in 10.0 mi West 3.5 mph - N/A   Clear
5:35 AM 39.6 °F 37.4 °F 37.2 °F 91% 30.16 in 10.0 mi WNW 3.5 mph - N/A   Clear
5:55 AM 39.2 °F 37.0 °F 36.7 °F 91% 30.15 in 10.0 mi WNW 3.5 mph - N/A   Clear
6:15 AM 40.3 °F 38.2 °F 37.6 °F 90% 30.16 in 10.0 mi West 3.5 mph - N/A   Clear
6:35 AM 40.3 °F - 37.4 °F 89% 30.16 in 10.0 mi Calm Calm - N/A   Clear
6:55 AM 39.4 °F 36.1 °F 36.5 °F 89% 30.16 in 10.0 mi WNW 4.6 mph - N/A   Clear
7:15 AM 39.2 °F 37.0 °F 36.5 °F 90% 30.17 in 10.0 mi WNW 3.5 mph - N/A   Clear
7:35 AM 39.2 °F 35.9 °F 36.7 °F 91% 30.17 in 10.0 mi WNW 4.6 mph - N/A   Clear
7:55 AM 40.1 °F 36.1 °F 37.4 °F 90% 30.17 in 10.0 mi WNW 5.8 mph - N/A   Clear
8:15 AM 41.4 °F 38.4 °F 38.3 °F 89% 30.17 in 10.0 mi WNW 4.6 mph - N/A   Clear
8:35 AM 43.3 °F 40.7 °F 39.9 °F 88% 30.17 in 10.0 mi West 4.6 mph - N/A   Clear
8:55 AM 45.9 °F 42.9 °F 40.8 °F 83% 30.17 in 10.0 mi West 5.8 mph - N/A   Clear
9:15 AM 48.0 °F - 41.7 °F 79% 30.17 in 7.0 mi West 6.9 mph - 0.01 in   Clear
9:35 AM 50.2 °F - 42.6 °F 75% 30.17 in 10.0 mi WNW 5.8 mph - 0.01 in   Clear
9:55 AM 52.9 °F - 43.5 °F 71% 30.17 in 10.0 mi West 6.9 mph - 0.01 in   Clear
10:15 AM 55.6 °F - 43.2 °F 63% 30.17 in 10.0 mi WNW 5.8 mph - N/A   Clear
10:35 AM 58.6 °F - 42.8 °F 56% 30.17 in 10.0 mi NW 6.9 mph - N/A   Clear
10:55 AM 59.9 °F - 42.3 °F 52% 30.17 in 10.0 mi WNW 8.1 mph - N/A   Clear
11:15 AM 61.7 °F - 42.1 °F 49% 30.16 in 10.0 mi West 6.9 mph - N/A   Clear
11:35 AM 62.8 °F - 41.4 °F 45% 30.16 in 10.0 mi NW 6.9 mph 10.4 mph N/A   Clear
11:55 AM 64.4 °F - 42.1 °F 44% 30.15 in 10.0 mi WNW 5.8 mph - N/A   Clear
12:15 PM 65.7 °F - 40.5 °F 40% 30.14 in 10.0 mi WNW 10.4 mph - N/A   Clear
12:35 PM 66.9 °F - 40.1 °F 37% 30.13 in 10.0 mi West 5.8 mph - N/A   Clear
12:55 PM 68.2 °F - 40.8 °F 37% 30.13 in 10.0 mi West 8.1 mph - N/A   Clear
1:15 PM 68.5 °F - 39.4 °F 34% 30.11 in 10.0 mi NNW 5.8 mph - N/A   Clear
1:35 PM 69.6 °F - 39.2 °F 33% 30.10 in 10.0 mi NNW 6.9 mph - N/A   Clear
1:55 PM 70.7 °F - 40.1 °F 33% 30.10 in 10.0 mi NNW 11.5 mph 17.3 mph N/A   Clear
2:15 PM 72.1 °F - 40.8 °F 32% 30.08 in 10.0 mi NW 8.1 mph - N/A   Clear
2:35 PM 72.0 °F - 38.7 °F 30% 30.08 in 10.0 mi NW 11.5 mph - N/A   Clear
2:55 PM 72.3 °F - 39.4 °F 30% 30.07 in 10.0 mi WNW 9.2 mph - N/A   Clear
3:15 PM 72.9 °F - 39.2 °F 30% 30.07 in 10.0 mi West 8.1 mph 17.3 mph N/A   Clear
3:35 PM 73.4 °F - 39.7 °F 30% 30.07 in 10.0 mi West 5.8 mph 18.4 mph N/A   Scattered Clouds
3:55 PM 73.4 °F - 39.2 °F 29% 30.05 in 10.0 mi NW 11.5 mph 16.1 mph N/A   Clear
4:15 PM 73.9 °F - 38.1 °F 27% 30.05 in 10.0 mi NW 8.1 mph - N/A   Scattered Clouds
4:35 PM 74.7 °F - 39.4 °F 28% 30.05 in 10.0 mi WNW 6.9 mph 16.1 mph N/A   Scattered Clouds
4:55 PM 74.1 °F - 37.6 °F 27% 30.04 in 10.0 mi West 5.8 mph - N/A   Clear
5:15 PM 74.1 °F - 38.5 °F 28% 30.03 in 10.0 mi WNW 6.9 mph - N/A   Clear
5:35 PM 74.3 °F - 38.1 °F 27% 30.03 in 10.0 mi West 12.7 mph 18.4 mph N/A   Clear
5:55 PM 73.6 °F - 37.9 °F 27% 30.03 in 10.0 mi WNW 8.1 mph - N/A   Clear
6:15 PM 73.4 °F - 38.7 °F 28% 30.03 in 10.0 mi WNW 5.8 mph - N/A   Clear
6:35 PM 72.9 °F - 39.2 °F 30% 30.02 in 10.0 mi Calm Calm - N/A   Clear
6:55 PM 71.6 °F - 40.5 °F 32% 30.02 in 10.0 mi NNW 3.5 mph - N/A   Clear
7:15 PM 70.5 °F - 40.1 °F 33% 30.02 in 10.0 mi Calm Calm - N/A   Clear
7:35 PM 67.8 °F - 42.8 °F 40% 30.02 in 10.0 mi NE 3.5 mph - N/A   Clear
7:55 PM 64.8 °F - 44.4 °F 48% 30.02 in 10.0 mi Calm Calm - N/A   Clear
8:15 PM 62.4 °F - 44.4 °F 52% 30.02 in 10.0 mi SE 3.5 mph - N/A   Clear
8:35 PM 61.2 °F - 43.9 °F 53% 30.02 in 10.0 mi SE 3.5 mph - N/A   Clear
8:55 PM 60.3 °F - 43.3 °F 54% 30.02 in 10.0 mi SE 3.5 mph - N/A   Clear
9:15 PM 57.9 °F - 43.5 °F 59% 30.03 in 10.0 mi Calm Calm - N/A   Clear
9:35 PM 58.5 °F - 43.3 °F 57% 30.02 in 10.0 mi SSE 4.6 mph - N/A   Clear
9:55 PM 55.4 °F - 43.7 °F 65% 30.03 in 10.0 mi SSE 6.9 mph - N/A   Clear
10:15 PM 55.2 °F - 43.7 °F 65% 30.03 in 10.0 mi SE 4.6 mph - N/A   Clear
10:35 PM 53.8 °F - 43.9 °F 69% 30.03 in 10.0 mi SE 5.8 mph - N/A   Clear
10:55 PM 53.4 °F - 43.3 °F 69% 30.03 in 10.0 mi Calm Calm - N/A   Clear
11:15 PM 52.9 °F - 43.2 °F 70% 30.03 in 10.0 mi Calm Calm - N/A   Clear
11:35 PM 51.4 °F - 43.2 °F 73% 30.03 in 10.0 mi Calm Calm - N/A   Clear
11:55 PM 50.4 °F - 43.0 °F 76% 30.03 in 10.0 mi Calm Calm - N/A   Clear